CW4498 Weather Reports


time (UTC)temp
F
wind
direction
speed
knots
gust
knots
rain 1hr
in
rain 24hr
in
rain mn
in
humidity
%
barometer
mb
20260904010054 77 136 0.9 6.1 0.00 0.00 0.00 23 1013.0
20260904004554 79 119 1.7 6.1 0.00 0.00 0.00 22 1013.0
20260904003053 81 132 2.6 7.8 0.00 0.00 0.00 20 1012.9
20260904001553 83 194 0.9 5.2 0.00 0.00 0.00 19 1013.0
20260904000057 84 233 1.7 6.1 0.00 0.00 0.00 18 1013.0
20260903234551 85 108 1.7 6.1 0.00 0.00 0.00 17 1013.1
20260903233051 85 268 1.7 6.1 0.00 0.00 0.00 17 1013.0
20260903231602 85 196 1.7 7.0 0.00 0.00 0.00 17 1013.1
20260903230048 85 137 2.6 7.0 0.00 0.00 0.00 17 1013.2
20260903224548 84 109 4.3 9.6 0.00 0.00 0.00 19 1013.1
20260903223057 84 142 0.0 3.5 0.00 0.00 0.00 21 1013.2
20260903221547 82 121 3.5 11.3 0.00 0.00 0.00 21 1013.4
20260903220101 82 128 4.3 8.7 0.00 0.00 0.00 21 1013.4
20260903214546 82 137 1.7 5.2 0.00 0.00 0.00 20 1013.7
20260903213045 84 120 4.3 8.7 0.00 0.00 0.00 18 1013.7
20260903211545 85 123 2.6 7.8 0.00 0.00 0.00 18 1013.7
20260903210043 85 115 2.6 8.7 0.00 0.00 0.00 17 1013.9
20260903204541 84 115 3.5 9.6 0.00 0.00 0.00 18 1014.2
20260903203040 84 119 0.9 4.3 0.00 0.00 0.00 19 1014.4
20260903201540 83 71 2.6 8.7 0.00 0.00 0.00 19 1014.4
20260903200046 84 165 3.5 7.8 0.00 0.00 0.00 19 1014.6
20260903194546 82 96 0.0 6.1 0.00 0.00 0.00 21 1014.7
20260903193038 82 123 3.5 7.0 0.00 0.00 0.00 20 1015.0
20260903191553 82 122 1.7 7.0 0.00 0.00 0.00 21 1015.0
20260903190038 84 83 2.6 7.0 0.00 0.00 0.00 19 1015.1
20260903184535 82 123 1.7 7.0 0.00 0.00 0.00 21 1015.3
20260903183049 82 132 0.9 7.0 0.00 0.00 0.00 22 1015.6
20260903181532 82 101 0.0 4.3 0.00 0.00 0.00 23 1015.7
20260903180036 81 123 0.9 2.6 0.00 0.00 0.00 24 1016.0
20260903174531 81 113 0.9 7.8 0.00 0.00 0.00 23 1016.2
20260903173030 81 133 0.0 3.5 0.00 0.00 0.00 24 1016.2
20260903171528 79 260 0.9 3.5 0.00 0.00 0.00 25 1016.3
20260903170025 78 122 1.7 5.2 0.00 0.00 0.00 27 1016.3
20260903164524 78 104 1.7 5.2 0.00 0.00 0.00 27 1016.4
20260903163021 76 128 2.6 6.1 0.00 0.00 0.00 28 1016.4
20260903161531 76 105 0.9 7.0 0.00 0.00 0.00 28 1016.5
20260903160022 76 119 1.7 5.2 0.00 0.00 0.00 28 1016.5
20260903154517 74 90 1.7 6.1 0.00 0.00 0.00 30 1016.6
20260903153015 74 109 2.6 5.2 0.00 0.00 0.00 30 1016.6
20260903151515 73 113 0.9 5.2 0.00 0.00 0.00 31 1016.7
20260903150014 72 135 0.0 4.3 0.00 0.00 0.00 32 1016.8
20260903144512 70 105 0.9 5.2 0.00 0.00 0.00 34 1016.8
20260903143012 68 219 0.0 1.7 0.00 0.00 0.00 36 1016.7
20260903141511 67 120 0.0 1.7 0.00 0.00 0.00 38 1016.7
20260903140014 66 110 0.0 1.7 0.00 0.00 0.00 38 1016.6
20260903134508 66 95 0.0 2.6 0.00 0.00 0.00 38 1016.4
20260903133008 65 144 0.0 1.7 0.00 0.00 0.00 38 1016.1
20260903131512 65 116 0.9 1.7 0.00 0.00 0.00 38 1015.9
20260903130007 63 264 0.9 2.6 0.00 0.00 0.00 39 1015.6
20260903124506 64 118 0.0 0.0 0.00 0.00 0.00 38 1015.2
20260903123006 67 315 0.0 1.7 0.00 0.00 0.00 34 1015.0
20260903121510 68 128 0.9 8.7 0.00 0.00 0.00 33 1015.1
20260903120007 68 283 2.6 5.2 0.00 0.00 0.00 33 1014.7
20260903114504 68 196 1.7 7.8 0.00 0.00 0.00 33 1014.9
20260903113004 68 246 2.6 8.7 0.00 0.00 0.00 32 1015.0
20260903111506 68 148 2.6 11.3 0.00 0.00 0.00 32 1014.7
20260903110003 67 131 2.6 9.6 0.00 0.00 0.00 32 1014.7
20260903104602 64 71 2.6 7.0 0.00 0.00 0.00 37 1014.9
20260903103001 62 272 0.0 1.7 0.00 0.00 0.00 40 1014.8
20260903101559 62 117 0.0 0.9 0.00 0.00 0.00 41 1014.8
20260903100058 62 254 0.0 1.7 0.00 0.00 0.00 40 1014.6
20260903094607 63 119 0.0 1.7 0.00 0.00 0.00 40 1014.7
20260903093054 64 109 0.0 3.5 0.00 0.00 0.00 39 1014.7
20260903091557 65 271 0.0 1.7 0.00 0.00 0.00 39 1014.7
20260903090050 65 140 0.0 2.6 0.00 0.00 0.00 39 1014.9
20260903084548 66 103 2.6 8.7 0.00 0.00 0.00 38 1014.5
20260903083044 67 118 1.7 7.8 0.00 0.00 0.00 37 1014.4
20260903081547 68 128 0.9 5.2 0.00 0.00 0.00 34 1014.4
20260903080042 69 5 0.9 6.1 0.00 0.00 0.00 34 1014.7
20260903074543 70 43 3.5 10.4 0.00 0.00 0.00 33 1014.8
20260903073047 70 302 2.6 7.0 0.00 0.00 0.00 33 1014.9
20260903071540 70 198 3.5 12.2 0.00 0.00 0.00 32 1014.8
20260903070039 69 127 2.6 9.6 0.00 0.00 0.00 34 1014.9
20260903064536 68 125 0.9 6.1 0.00 0.00 0.00 35 1014.9
20260903063034 71 317 2.6 7.8 0.00 0.00 0.00 31 1015.4
20260903061534 72 256 2.6 13.9 0.00 0.00 0.00 31 1015.5
20260903060029 72 315 2.6 9.6 0.00 0.00 0.00 32 1015.6
20260903054530 69 276 2.6 6.1 0.00 0.00 0.00 36 1015.7
20260903053029 69 24 0.9 8.7 0.00 0.00 0.00 35 1015.6
20260903051528 67 36 0.0 2.6 0.00 0.00 0.00 41 1015.7
20260903050026 65 327 0.0 2.6 0.00 0.00 0.00 44 1015.8
20260903044527 66 336 0.0 2.6 0.00 0.00 0.00 44 1015.8
20260903043026 67 32 1.7 3.5 0.00 0.00 0.00 43 1015.9
20260903041526 68 27 0.9 3.5 0.00 0.00 0.00 42 1016.0
20260903040028 68 26 0.9 1.7 0.00 0.00 0.00 41 1016.0
20260903034525 69 26 0.9 3.5 0.00 0.00 0.00 39 1016.1
20260903033024 70 17 0.9 2.6 0.00 0.00 0.00 35 1016.0
20260903031524 73 153 0.0 2.6 0.00 0.00 0.00 29 1016.0
20260903030029 74 276 0.9 3.5 0.00 0.00 0.00 28 1015.3
20260903024523 74 261 1.7 4.3 0.00 0.00 0.00 27 1015.2
20260903023022 75 267 1.7 6.1 0.00 0.00 0.00 27 1015.1
20260903021523 74 242 1.7 3.5 0.00 0.00 0.00 28 1014.9
20260903020035 73 223 0.9 4.3 0.00 0.00 0.00 28 1014.5
20260903014524 72 257 0.0 1.7 0.00 0.00 0.00 29 1014.5
20260903013020 73 268 0.0 1.7 0.00 0.00 0.00 30 1014.4
20260903011521 75 136 0.0 0.9 0.00 0.00 0.00 29 1014.4